Find Hydra-2

NORAD ID: 67389 Int'l Des: 2026-004 Owner: AISTS Country: E operational
LEOCIRCULARRETROGRADESSO

Live Position

Loading 3D Globe...

About Hydra-2

Description loading...

Upcoming Passes

Passes for default location (London). Set your location on the main map for personalized predictions.

Altitude History

Loading altitude history...

Two-Line Element Set

1 67389U 26004AC 26109.47383462 .00004059 00000-0 20316-3 0 9993
2 67389 97.4596 109.3486 0003731 152.6462 207.4968 15.17958392 14849
Epoch: Apr 19, 2026 • Age: 10 hours

Current Status

Altitude 519.3 km
Velocity 7.61 km/s
Sub-Earth Point 43.31°N, 61.12°W
Launch Date Jan 11, 2026
Age 0.2 years
Type other

Technical Details

Classification Payload
Mass 10.00 kg
Dry Mass 10.00 kg
Total Mass 10.00 kg
Length 0.30 m
Diameter 0.10 m
Span 0.50 m
Shape Box+3 pan
Manufacturer ENDUR
Bus Type Cubesat 6U
Phase Status In Orbit
Owner/State AISTS/E

Most Searched